Temp
72 78 80 77 79 79 67 66 60 66 66 58 61 62 62 68 77 74 71 71 70 70 72 71 72 73 72 73 74 75 74 72 71 73 73 71 71 72 73 72 72 72 72 73
66 78 80 78 81 79 79 80 72 70 62 66 66 69 71 71 74 72 71 73 73 73 72 71 72 71 71 70 69 70 68 67 68 68 69 69 69 69 71 72 71 72 72 71
59 72 74 67 75 76 75 73 72 68 68 68 65 68 68 72 73 73 72 72 71 71 70 70 68 68 68 68 68 67 66 66 68 67 67 67 69 69 69 73 74 74 75 73
55 65 55 70 76 76 72 73 75 72 72 69 69 71 75 78 75 74 73 72 71 70 69 69 68 67 67 67 67 67 66 66 67 66 67 68 69 68 69 70 69 71 71 72
49 55 66 74 75 72 68 67 78 71 73 70 68 70 71 79 77 75 73 71 70 70 70 68 69 69 69 68 69 69 68 68 68 68 67 68 67 67 67 67 67 68 70 69
55 55 54 63 77 81 76 59 78 75 70 66 61 52 59 70 76 75 74 73 72 73 72 71 69 70 69 68 68 67 67 67 68 68 66 65 65 66 66 66 67 68 68 69
58 56 61 70 77 80 59 59 74 78 72 63 60 64 66 70 72 75 74 73 73 72 69 69 70 69 66 66 64 66 67 67 66 66 65 65 64 64 63 62 63 63 65 66
54 51 50 69 73 62 63 70 74 73 70 67 66 66 66 69 71 73 71 73 73 68 67 68 69 67 65 64 65 66 65 64 64 64 66 68 63 62 62 62 62 63 64 65
55 52 60 63 70 77 74 67 73 71 71 71 70 69 69 66 68 69 69 68 69 67 66 67 67 66 64 64 65 65 63 62 63 63 63 63 61 61 62 62 63 64 65 65
60 60 62 68 75 79 78 75 76 75 72 73 69 69 67 66 65 66 66 66 66 66 65 64 66 66 65 65 65 63 62 62 62 61 61 61 62 62 61 60 60 63 62 63
64 67 65 71 73 76 76 75 73 73 73 72 71 68 67 65 63 64 64 66 66 67 64 63 64 63 64 62 62 60 60 60 60 60 60 62 61 60 60 60 59 62 61 59
58 67 66 66 72 76 72 71 71 70 68 69 69 66 65 63 63 62 65 67 63 62 61 61 61 59 60 60 59 57 56 57 57 58 59 62 61 61 60 58 55 53 51 53
66 70 71 72 75 76 71 71 71 69 67 65 66 66 65 61 64 63 61 61 60 59 59 58 57 57 57 57 57 56 55 55 56 57 58 57 59 58 56 59 56 53 52 51
73 70 68 70 68 73 73 72 70 70 67 66 67 67 66 63 62 60 59 59 60 59 56 56 56 55 57 57 58 60 60 56 58 58 58 57 57 57 57 57 58 60 58 54
72 72 70 71 71 70 71 70 66 65 65 64 65 63 63 61 59 59 59 60 60 58 57 56 55 55 57 61 60 59 59 59 59 59 59 57 58 58 57 57 58 59 58 58
71 72 71 69 67 68 69 68 65 64 64 65 64 63 63 62 61 61 59 59 56 55 59 57 55 56 57 60 59 58 57 59 58 57 57 57 58 57 56 56 56 57 58 59
66 63 64 63 63 64 65 66 67 66 66 65 63 64 64 63 61 63 63 63 59 58 61 56 55 57 57 56 55 53 53 53 59 56 56 57 58 57 58 58 57 57 57 59
70 67 63 61 60 61 63 67 64 65 63 63 63 64 62 57 56 58 61 59 59 58 58 59 58 57 57 57 56 55 53 53 54 55 56 55 56 57 56 56 57 56 57 57
63 59 58 59 58 59 58 65 65 64 63 63 62 60 62 60 59 59 58 57 57 55 58 60 61 61 57 59 61 55 54 54 53 54 55 54 55 55 54 53 54 55 55 56
59 59 58 58 59 57 57 65 65 64 64 63 62 60 59 61 61 58 57 57 58 61 61 61 60 58 58 59 62 56 55 54 53 53 53 54 54 55 54 52 52 54 54 55
59 59 59 59 61 62 64 65 64 62 63 63 61 59 61 60 60 59 55 55 63 64 64 63 62 58 57 58 57 56 55 53 53 53 53 53 54 54 53 51 52 53 53 53
60 58 58 59 59 60 61 63 64 62 60 61 62 62 60 58 58 58 58 58 59 60 61 60 59 61 58 61 55 55 55 53 51 50 50 50 51 50 50 52 51 52 52 51
59 60 59 59 57 56 59 61 61 63 61 59 59 59 58 59 59 56 56 62 63 59 57 59 60 61 59 54 55 56 55 53 51 51 52 52 51 49 51 50 50 50 50 50
57 57 57 57 57 56 56 56 59 62 61 61 61 60 60 59 59 61 64 60 59 57 58 59 58 59 57 55 58 60 55 55 56 56 54 51 51 50 50 50 50 50 50 49
60 59 59 56 54 54 55 57 58 61 62 62 60 59 61 62 59 62 61 60 57 58 59 59 58 57 55 61 57 57 57 55 55 55 53 51 50 51 50 50 50 49 49 50
58 58 58 59 57 58 58 59 59 60 60 59 61 61 61 61 63 62 59 58 59 58 59 60 59 59 59 59 57 57 55 58 57 57 52 51 53 49 49 49 50 49 49 49
60 56 58 58 57 61 61 61 59 59 61 62 60 61 60 63 63 60 57 60 60 59 60 61 62 61 61 57 55 57 59 59 56 56 53 53 52 50 49 49 50 50 50 49
MSLP
1000.26 999.84 999.33 998.66 998.08 998.27 999.09 1000.21 1001.53 1002.54 1003.38 1005.55 1006.22 1005.47 1006.73 1007.75 1007.27 1007.81 1008.43 1010.14 1010.37 1010.66 1009.50 1009.56 1009.45 1010.11 1010.62 1011.13 1011.56 1011.71 1011.66 1011.92 1012.64 1012.97 1013.09 1013.58 1014.06 1014.04 1014.14 1014.91 1014.85 1014.44 1013.32 1014.00
1001.21 1000.21 999.56 998.76 998.26 998.29 998.76 999.51 1000.91 1002.03 1003.69 1004.55 1005.78 1005.78 1006.67 1007.01 1006.72 1007.29 1008.82 1008.89 1009.02 1009.38 1009.83 1010.02 1010.98 1011.25 1011.69 1012.36 1012.64 1012.77 1013.08 1013.29 1013.77 1013.23 1013.43 1013.71 1013.21 1013.97 1013.75 1013.64 1014.01 1013.22 1014.73 1014.35
1002.80 1001.25 1000.19 999.52 998.71 998.92 999.53 1001.11 1002.43 1002.52 1003.11 1004.55 1005.39 1006.46 1007.06 1006.50 1006.27 1007.04 1008.05 1009.37 1009.82 1010.38 1010.56 1010.91 1011.69 1011.89 1012.26 1012.81 1012.99 1013.04 1013.34 1013.47 1013.89 1014.30 1014.04 1013.41 1012.57 1013.70 1013.95 1013.70 1013.66 1013.76 1013.97 1013.82
1005.17 1003.12 1001.24 999.98 999.75 999.76 999.82 1000.65 1001.23 1002.56 1002.96 1004.18 1005.15 1006.01 1005.19 1005.37 1006.17 1007.21 1008.58 1009.32 1010.05 1010.59 1010.93 1011.57 1011.98 1012.12 1012.37 1012.98 1013.43 1013.73 1013.67 1013.93 1013.99 1014.42 1014.38 1014.19 1013.25 1013.74 1014.27 1013.68 1013.31 1013.29 1013.66 1013.74
1006.25 1005.43 1002.34 1000.66 1000.76 1000.62 1000.81 1001.32 1001.14 1001.17 1004.56 1005.53 1006.75 1007.03 1007.40 1006.60 1007.05 1008.40 1009.37 1010.18 1010.31 1010.51 1011.22 1011.84 1012.13 1012.46 1012.67 1013.13 1013.50 1013.73 1014.03 1014.09 1014.09 1014.02 1014.11 1014.04 1014.07 1014.17 1014.07 1014.13 1013.95 1014.10 1014.20 1013.83
1006.21 1006.83 1003.84 1003.74 1002.20 1000.67 1000.80 1001.90 1001.90 1002.16 1004.29 1006.19 1007.44 1010.96 1008.45 1008.75 1008.04 1008.22 1009.43 1010.18 1010.81 1010.99 1011.16 1011.66 1012.25 1012.68 1013.01 1013.41 1013.75 1014.24 1014.31 1014.40 1014.33 1014.29 1014.39 1014.46 1014.58 1014.54 1014.45 1014.42 1014.29 1014.32 1013.79 1013.33
1004.15 1004.22 1003.76 1003.92 1002.67 1001.39 1002.34 1004.15 1002.96 1001.85 1002.84 1004.88 1007.93 1008.18 1010.20 1010.82 1009.55 1008.47 1008.79 1010.02 1010.64 1011.30 1011.68 1011.93 1012.52 1012.97 1013.55 1013.77 1014.25 1014.39 1014.47 1014.59 1014.67 1014.70 1014.75 1014.68 1014.62 1014.62 1014.56 1014.47 1014.27 1013.92 1013.28 1012.90
1004.98 1005.39 1005.71 1004.71 1003.50 1004.18 1005.33 1004.30 1003.75 1003.70 1004.16 1005.69 1007.30 1009.32 1009.84 1010.24 1010.73 1009.11 1009.47 1010.59 1011.11 1011.88 1012.29 1012.41 1012.82 1013.36 1013.89 1014.18 1014.26 1014.38 1014.61 1014.88 1015.00 1014.96 1014.83 1014.61 1014.60 1014.37 1014.11 1013.94 1013.58 1013.19 1012.87 1012.34
1005.35 1005.95 1006.19 1005.82 1005.07 1004.91 1004.49 1005.19 1004.69 1005.16 1005.25 1005.69 1007.05 1007.95 1009.02 1009.95 1009.88 1009.85 1010.77 1011.65 1012.03 1012.65 1013.01 1012.96 1013.20 1013.61 1014.11 1014.15 1014.17 1014.37 1014.57 1014.64 1014.67 1014.56 1014.45 1014.24 1014.23 1014.11 1013.98 1013.75 1013.50 1013.22 1012.85 1012.48
1005.51 1006.10 1005.75 1005.46 1004.05 1004.41 1004.98 1005.56 1005.16 1005.83 1006.33 1006.64 1007.75 1008.85 1009.57 1009.98 1010.83 1011.37 1011.84 1012.43 1012.87 1013.15 1013.25 1013.42 1013.59 1013.90 1014.20 1014.31 1014.31 1014.54 1014.72 1014.75 1014.71 1014.56 1014.33 1014.10 1013.90 1013.62 1013.45 1013.33 1013.18 1012.83 1012.53 1012.09
1004.38 1004.85 1005.26 1004.53 1004.24 1004.67 1005.26 1005.35 1006.44 1006.56 1007.18 1007.96 1008.51 1009.75 1010.44 1011.08 1011.86 1012.23 1012.66 1012.96 1013.10 1013.37 1013.67 1014.08 1014.21 1014.44 1014.47 1014.63 1014.66 1014.91 1014.99 1014.97 1014.84 1014.60 1014.37 1013.99 1013.57 1013.31 1013.08 1012.75 1012.56 1012.29 1012.09 1011.79
1004.49 1004.14 1004.24 1004.64 1004.61 1004.73 1005.55 1006.22 1006.88 1007.42 1008.28 1009.01 1009.52 1010.16 1010.79 1011.72 1012.19 1012.57 1012.83 1012.97 1013.33 1013.80 1014.21 1014.68 1014.89 1015.11 1015.20 1015.16 1015.23 1015.27 1015.29 1015.21 1015.04 1014.78 1014.55 1014.23 1013.69 1013.05 1012.51 1012.22 1011.92 1011.59 1011.18 1011.19
1003.78 1003.64 1003.80 1004.21 1004.57 1005.25 1006.11 1006.79 1007.40 1008.35 1009.49 1009.93 1010.27 1010.51 1011.05 1011.84 1012.18 1012.66 1013.19 1013.59 1014.10 1014.62 1014.84 1015.16 1015.40 1015.52 1015.56 1015.44 1015.38 1015.37 1015.22 1015.11 1015.01 1014.77 1014.40 1013.94 1013.53 1012.97 1012.46 1011.84 1011.33 1010.94 1010.53 1010.09
1003.79 1004.07 1004.51 1004.68 1005.20 1005.62 1006.23 1007.07 1007.72 1008.80 1009.52 1010.29 1010.81 1011.24 1011.76 1012.37 1012.90 1013.46 1014.07 1014.52 1014.78 1015.13 1015.50 1015.63 1015.73 1015.75 1015.59 1015.43 1015.32 1015.24 1015.20 1015.07 1014.91 1014.58 1014.15 1013.67 1013.17 1012.70 1012.21 1011.60 1010.90 1010.29 1009.68 1009.41
1004.12 1004.08 1004.45 1004.86 1005.50 1006.25 1006.78 1007.32 1008.25 1009.24 1010.18 1010.78 1011.22 1011.77 1012.29 1012.92 1013.48 1013.99 1014.33 1014.61 1014.91 1015.19 1015.42 1015.58 1015.67 1015.67 1015.41 1015.22 1015.16 1015.08 1014.89 1014.58 1014.33 1014.06 1013.71 1013.31 1012.89 1012.36 1011.87 1011.28 1010.71 1010.20 1009.71 1009.05
1004.40 1004.50 1004.91 1005.67 1006.45 1006.93 1007.45 1008.02 1008.66 1009.39 1010.25 1010.93 1011.58 1012.15 1012.71 1013.24 1013.67 1013.99 1014.37 1014.67 1014.85 1014.98 1014.97 1015.34 1015.43 1015.36 1015.10 1014.96 1014.87 1014.70 1014.52 1014.09 1013.86 1013.69 1013.37 1012.90 1012.37 1011.91 1011.41 1010.94 1010.44 1009.99 1009.49 1009.09
1005.03 1005.73 1006.37 1007.02 1007.64 1007.98 1008.38 1008.77 1009.16 1009.65 1010.30 1011.12 1011.88 1012.38 1012.88 1013.29 1013.69 1014.09 1014.40 1014.52 1014.66 1014.60 1014.80 1014.90 1014.96 1014.71 1014.52 1014.40 1014.46 1014.43 1014.21 1013.85 1013.48 1013.26 1012.99 1012.60 1011.96 1011.40 1011.06 1010.68 1010.20 1009.79 1009.32 1008.88
1005.43 1006.09 1007.29 1008.47 1009.17 1009.57 1009.57 1009.40 1010.37 1010.32 1010.83 1011.60 1012.16 1012.65 1013.10 1013.68 1014.08 1014.24 1014.34 1014.46 1014.53 1014.46 1014.36 1014.17 1014.18 1014.19 1014.05 1013.88 1013.92 1013.81 1013.58 1013.31 1013.15 1012.97 1012.60 1012.32 1011.82 1011.34 1010.92 1010.51 1010.12 1009.68 1009.07 1008.49
1007.54 1008.74 1009.59 1009.84 1010.10 1010.12 1012.23 1010.56 1010.31 1010.78 1011.19 1012.05 1012.74 1013.07 1013.46 1013.59 1013.90 1014.13 1014.19 1014.35 1014.42 1014.31 1013.81 1013.51 1013.61 1013.59 1013.49 1013.22 1013.27 1013.18 1012.98 1012.94 1012.80 1012.59 1012.31 1011.95 1011.55 1011.14 1010.73 1010.41 1010.06 1009.59 1008.92 1008.27
1009.22 1009.41 1010.10 1011.68 1011.15 1011.95 1012.47 1010.84 1010.51 1010.87 1011.61 1012.28 1012.88 1013.40 1013.54 1013.66 1013.67 1013.92 1013.95 1014.17 1013.86 1013.53 1013.02 1012.98 1012.98 1013.03 1012.84 1012.71 1012.71 1012.53 1012.36 1012.37 1012.37 1012.23 1012.03 1011.73 1011.25 1010.77 1010.46 1010.15 1009.78 1009.29 1008.71 1008.07
1009.93 1010.03 1010.38 1011.91 1011.81 1012.16 1012.40 1011.38 1011.47 1011.61 1011.79 1012.11 1012.80 1013.24 1013.49 1013.51 1013.40 1013.50 1013.70 1013.65 1013.02 1012.56 1012.52 1012.37 1012.44 1012.50 1012.25 1012.17 1012.15 1011.99 1011.88 1011.97 1011.90 1011.83 1011.68 1011.25 1010.84 1010.48 1010.26 1010.01 1009.55 1009.00 1008.41 1007.92
1010.75 1010.94 1011.05 1011.69 1011.63 1011.55 1011.88 1011.91 1011.66 1011.55 1012.28 1012.62 1012.74 1012.90 1013.27 1013.32 1013.17 1013.08 1012.89 1012.97 1012.59 1012.31 1012.19 1012.15 1011.80 1011.55 1011.58 1011.48 1011.51 1011.42 1011.32 1011.26 1011.27 1011.29 1011.21 1010.88 1010.60 1010.46 1010.31 1009.86 1009.37 1008.78 1008.24 1007.74
1011.34 1011.43 1011.68 1011.99 1012.20 1012.24 1012.24 1011.94 1011.79 1012.02 1012.37 1012.71 1012.85 1012.98 1013.07 1012.94 1012.75 1012.84 1012.90 1012.12 1011.78 1011.63 1011.65 1011.44 1011.23 1011.07 1010.95 1011.11 1010.93 1010.74 1010.68 1010.49 1010.34 1010.36 1010.42 1010.30 1010.01 1010.06 1009.87 1009.57 1009.12 1008.63 1008.15 1007.75
1012.19 1012.25 1012.23 1012.31 1012.22 1012.30 1012.54 1012.11 1012.65 1012.02 1012.33 1012.53 1012.43 1012.50 1012.52 1012.40 1012.05 1011.97 1011.52 1011.43 1011.19 1011.28 1011.36 1011.00 1010.71 1010.59 1010.42 1010.47 1010.14 1009.93 1009.95 1009.73 1009.55 1009.55 1009.44 1009.48 1009.71 1009.55 1009.42 1009.24 1008.93 1008.47 1008.06 1007.68
1011.90 1012.13 1012.32 1012.56 1012.66 1012.73 1012.52 1012.40 1012.50 1012.12 1012.08 1012.06 1011.86 1011.81 1011.67 1011.45 1011.70 1011.34 1011.23 1011.21 1011.35 1011.24 1011.03 1010.60 1010.48 1010.18 1009.92 1009.65 1009.61 1009.55 1009.13 1008.85 1008.71 1008.92 1009.29 1009.38 1009.22 1009.32 1009.22 1009.07 1008.73 1008.39 1008.09 1007.63
1011.76 1011.86 1012.06 1012.19 1012.20 1012.39 1012.25 1012.11 1012.13 1011.90 1011.80 1011.69 1011.38 1011.22 1011.19 1011.08 1011.17 1011.00 1011.09 1010.97 1010.81 1010.60 1010.36 1010.04 1009.84 1009.58 1009.31 1009.20 1009.11 1008.78 1008.82 1008.21 1008.40 1008.73 1008.90 1009.16 1008.91 1009.11 1009.08 1008.83 1008.52 1008.26 1008.02 1007.73
1011.44 1011.46 1011.66 1011.86 1011.74 1011.62 1011.29 1011.50 1011.52 1011.45 1011.13 1011.02 1011.11 1010.95 1011.14 1010.84 1011.15 1011.37 1011.22 1010.82 1010.58 1010.37 1010.28 1009.96 1009.56 1009.07 1008.80 1009.00 1008.98 1008.56 1008.64 1008.57 1008.46 1008.42 1008.49 1008.51 1008.54 1008.67 1008.62 1008.35 1008.11 1007.98 1007.82 1007.61
Wind_Speed
9 11 15 9 11 8 2 8 3 11 11 12 18 22 22 26 15 19 21 17 13 10 12 14 17 17 16 16 14 13 15 14 10 9 11 10 9 7 6 10 11 6 13 13
7 10 14 15 11 8 5 6 12 8 4 11 8 18 14 13 12 16 13 14 14 14 14 14 15 13 12 11 10 12 12 10 8 6 6 5 7 5 6 3 4 6 8 9
8 9 11 9 8 6 4 2 2 3 7 11 5 9 8 9 14 15 15 12 13 13 12 12 10 7 10 7 6 5 7 4 3 5 5 2 5 4 5 4 2 3 7 7
5 10 7 8 11 8 7 7 9 6 10 10 12 11 10 15 15 15 12 12 12 9 9 8 7 8 8 7 7 5 4 2 1 3 4 4 6 6 4 6 7 9 10 11
5 8 11 8 5 6 6 7 2 6 8 12 9 6 7 12 14 12 11 9 8 8 8 7 7 7 7 6 5 5 5 3 2 4 5 6 6 6 5 6 5 6 9 9
8 11 5 7 17 5 6 4 8 7 20 17 15 4 2 8 13 15 14 10 7 9 8 8 5 6 8 6 7 7 6 5 5 5 6 5 5 6 4 4 6 6 7 9
5 5 2 13 14 12 5 4 10 9 23 25 15 7 14 9 8 13 11 8 7 8 7 8 8 7 6 6 6 5 5 5 5 5 5 6 5 2 4 6 6 7 8 8
3 5 4 10 8 8 7 11 9 14 14 19 19 20 15 13 8 14 11 8 10 8 7 6 7 7 5 5 3 3 2 1 2 4 4 4 6 6 6 6 7 8 9 9
4 6 3 6 7 12 6 7 6 14 12 16 17 16 13 8 7 9 9 8 7 7 7 6 6 6 5 0 1 2 3 4 4 5 5 6 5 6 5 6 6 8 7 7
2 0 8 9 6 7 5 10 10 7 11 13 14 12 9 9 10 10 8 7 7 8 7 6 5 5 4 4 3 2 3 4 5 6 7 6 4 4 4 3 4 6 6 7
3 9 11 10 6 8 8 12 14 12 12 11 14 14 13 10 9 8 7 7 6 5 5 6 6 5 7 7 7 6 6 5 6 4 6 7 5 4 4 5 5 7 6 5
4 4 7 6 7 10 12 14 14 16 14 12 14 12 12 9 9 7 6 6 7 8 8 8 8 7 7 7 7 5 4 4 4 4 5 7 7 7 9 10 13 15 14 9
4 6 8 9 9 11 12 13 15 15 11 11 8 9 10 7 7 8 9 9 8 7 6 8 7 7 7 6 6 6 5 5 5 6 6 5 6 7 5 7 12 12 15 15
4 8 7 6 7 10 12 13 16 12 10 8 8 7 8 8 8 9 8 7 7 7 6 5 5 4 5 5 5 6 6 7 5 6 7 7 7 8 8 9 8 8 9 8
4 3 3 7 10 13 14 14 14 11 8 8 8 8 8 8 8 7 7 6 3 4 2 1 2 4 5 5 5 6 6 6 6 6 7 9 8 8 8 9 8 7 6 8
2 1 2 12 11 10 12 11 11 9 9 7 7 8 7 6 7 7 7 5 2 2 4 4 2 2 3 3 4 4 5 10 7 7 7 8 7 7 7 8 8 7 7 7
3 5 8 8 8 6 6 5 10 9 7 8 8 7 6 5 4 6 5 5 3 5 6 5 4 5 4 4 5 4 4 4 9 5 6 8 8 7 7 7 8 8 8 8
5 4 12 13 11 7 7 11 6 8 9 8 8 4 4 8 6 4 4 1 5 7 3 6 7 6 5 6 4 4 5 4 4 5 6 7 7 7 7 7 7 8 9 9
21 20 16 17 17 19 17 9 9 9 9 7 5 3 7 7 4 1 3 4 6 7 8 7 11 8 7 7 6 5 5 3 4 4 5 7 7 7 4 4 6 9 9 9
20 19 20 10 14 14 9 0 8 8 7 6 4 6 6 4 2 2 4 6 7 7 7 5 6 7 7 8 8 5 5 4 4 4 4 6 7 7 4 6 7 8 9 9
15 17 18 10 11 11 8 4 6 6 7 6 3 5 4 3 3 5 5 4 8 6 6 9 7 6 5 5 4 5 4 2 4 4 5 6 6 4 4 5 8 7 8 8
7 6 8 4 4 7 6 5 4 6 8 6 5 4 3 4 6 6 7 7 5 7 5 5 5 7 6 8 4 5 5 4 4 4 5 5 4 3 5 8 7 7 7 8
5 6 6 6 5 4 3 5 6 7 5 4 4 5 5 5 5 1 6 6 5 6 5 6 6 10 8 5 5 6 6 6 5 5 5 5 2 3 4 6 7 6 7 7
3 3 4 3 4 4 3 5 9 2 3 4 6 6 5 4 4 4 8 9 12 8 5 6 7 8 8 5 6 7 5 6 5 5 5 5 2 2 3 4 5 5 6 7
2 4 5 6 5 2 2 5 6 3 3 7 8 7 7 6 5 6 4 4 7 4 4 7 8 12 5 5 4 1 8 5 6 2 3 1 1 2 3 3 4 5 5 5
4 4 3 5 5 5 5 4 4 4 3 5 4 4 2 3 4 2 3 2 3 6 5 6 5 6 4 4 4 5 3 4 5 4 3 3 2 2 3 4 4 4 3 4
4 6 3 1 3 5 4 4 3 4 4 3 1 1 4 3 2 5 3 4 4 5 5 4 6 5 3 3 4 5 4 1 3 4 3 2 2 2 4 5 5 4 3 3
Wind_Direction
279 297 297 268 247 236 61 256 305 203 144 168 142 124 121 243 130 119 120 130 136 133 89 76 73 70 66 64 62 70 78 78 72 72 76 70 49 33 28 33 348 355 342 309
278 293 295 297 303 210 232 321 22 110 100 185 177 142 172 211 95 94 89 100 101 89 89 86 80 79 79 72 63 62 49 60 37 62 105 114 102 10 353 117 297 17 303 309
272 267 287 313 287 141 135 116 212 211 234 153 153 161 207 146 117 109 108 104 93 91 88 86 92 101 91 92 92 81 88 78 39 301 300 322 84 176 304 312 26 301 299 293
283 335 288 253 47 51 87 18 24 43 129 159 148 200 144 128 117 113 116 110 104 98 90 85 93 83 89 86 85 102 95 99 287 269 269 282 31 11 318 341 347 329 313 302
55 300 291 327 54 67 74 310 111 67 134 85 58 44 17 102 103 108 103 106 114 115 114 112 103 122 114 115 113 101 117 108 31 11 1 4 354 340 333 320 315 293 278 278
168 223 265 21 346 221 131 275 330 157 154 130 76 316 223 343 122 119 118 125 128 119 108 93 89 78 66 74 77 66 61 50 27 7 350 337 308 295 287 285 281 277 293 294
211 218 93 355 346 322 56 264 310 333 136 147 145 159 154 194 130 122 118 124 109 99 104 101 83 72 57 56 64 65 56 38 12 342 326 303 302 299 268 270 274 274 286 283
68 54 166 338 15 61 266 309 38 59 83 120 137 139 131 159 154 103 98 100 100 106 103 97 89 82 71 68 70 61 62 30 275 272 273 283 280 280 279 279 282 284 279 277
150 195 213 271 68 333 357 308 39 101 103 106 118 127 127 132 104 90 91 76 75 93 89 81 82 86 75 341 51 27 2 328 321 313 294 278 274 276 279 271 273 285 293 310
74 172 202 203 176 120 33 31 51 107 126 115 112 118 114 82 83 87 81 72 65 61 56 53 58 57 62 49 42 1 300 297 295 284 275 283 277 262 262 291 306 295 289 301
163 176 205 211 152 126 86 77 77 59 59 89 99 97 101 96 94 98 89 79 73 60 54 50 47 30 33 36 28 18 4 336 320 326 320 304 299 283 273 268 246 283 281 265
209 207 136 156 118 101 87 83 78 79 70 64 77 83 88 82 83 82 71 54 55 53 50 34 39 42 29 24 23 16 359 334 318 318 324 304 293 289 271 265 272 276 261 238
305 99 109 131 111 110 108 104 96 91 82 79 68 79 81 85 72 68 59 51 48 56 46 40 35 23 12 2 3 352 334 320 318 304 295 289 310 297 300 289 267 264 273 277
29 92 70 111 140 123 113 107 94 88 98 100 95 78 79 91 75 75 70 66 49 53 57 46 20 345 319 318 327 324 319 305 314 314 313 308 306 304 300 299 298 302 276 268
286 80 159 149 107 117 116 113 110 110 98 79 78 83 79 83 98 104 105 97 97 121 141 187 309 316 323 320 318 318 308 297 294 307 302 293 292 293 299 294 295 301 306 303
225 285 359 129 127 125 122 125 122 122 123 134 123 114 124 130 140 145 148 153 132 295 233 171 114 297 297 312 294 282 294 292 281 297 297 291 284 286 286 294 296 294 297 294
117 79 98 118 136 141 134 141 134 133 125 112 119 121 133 159 89 102 81 83 359 309 138 148 190 241 256 267 254 267 276 272 285 289 288 309 290 283 294 298 301 299 297 296
0 69 69 58 43 22 101 80 96 93 90 95 94 86 104 94 101 75 62 305 299 298 212 201 200 235 255 266 230 267 277 261 278 289 295 297 302 301 293 304 317 316 310 307
75 68 62 77 65 48 327 137 95 94 93 105 126 159 120 113 113 98 288 289 277 269 267 215 203 233 244 258 211 261 269 269 271 280 290 288 297 297 288 293 308 305 302 303
87 86 69 78 99 92 255 14 113 114 130 144 154 113 128 156 162 279 285 272 255 252 244 226 258 247 252 257 224 265 258 255 262 274 289 299 293 281 276 283 293 300 306 302
109 117 126 157 154 171 203 92 102 117 112 108 143 133 156 214 230 248 267 268 283 270 218 236 245 251 245 251 256 267 276 279 285 280 284 283 285 285 293 301 303 300 302 302
98 94 93 70 59 87 19 337 118 96 98 111 120 159 206 257 262 267 252 233 258 247 222 247 257 238 224 246 253 261 244 233 247 264 268 265 281 321 312 319 311 309 309 312
88 99 98 91 71 55 335 13 111 128 146 175 221 230 226 234 236 255 310 264 260 249 232 247 251 231 248 260 252 252 238 226 224 231 256 259 226 263 311 315 314 313 324 324
130 122 127 123 94 79 45 65 316 168 195 224 242 249 251 262 279 198 240 257 257 267 253 264 264 249 258 253 253 260 260 238 219 232 252 257 201 276 310 312 314 318 318 317
192 177 155 149 131 220 244 254 263 248 186 227 249 263 252 250 206 260 278 332 39 5 316 321 279 257 257 268 313 280 274 254 232 225 49 32 247 3 325 301 305 315 318 323
194 196 198 199 217 208 226 227 225 252 244 257 249 210 255 359 350 85 115 196 264 277 281 304 269 273 259 267 274 282 314 343 103 112 154 237 54 346 303 292 290 298 311 318
208 213 222 284 269 219 148 167 207 259 252 252 251 350 115 117 269 290 336 303 303 296 309 314 309 316 323 55 324 332 4 264 162 163 204 177 132 240 264 266 259 265 291 320